Regional Weather Roundup
Issued by NWS

Home | Current Version | Previous Version | Text Only | Print | Product List | Glossary Off
Versions: 1 2 3 4 5 6 7 8 9 10 11 12 13 14 15 16 17 18 19 20 21 22 23 24 25 26 27 28 29 30 31 32 33 34 35 36 37 38 39 40 41 42 43 44 45 46 47 48 49 50

000
ASUS43 KFSD 181102
RWRSD

WEATHER ROUNDUP FOR SOUTH DAKOTA
NATIONAL WEATHER SERVICE SIOUX FALLS SD
500 AM CST WED JAN 18 2017

NOTE: "FAIR" INDICATES FEW OR NO CLOUDS BELOW 12,000 FEET WITH NO
SIGNIFICANT WEATHER AND/OR OBSTRUCTIONS TO VISIBILITY.


SDZ001>005-009-010-012>017-181200-
NORTHWEST AND NORTH CENTRAL SOUTH DAKOTA

CITY           SKY/WX    TMP DP  RH WIND       PRES   REMARKS
BUFFALO          N/A     34  22  61 W9        29.71F WCI  27
FAITH            N/A     27  19  72 SW12      29.77F WCI  17
MOBRIDGE       CLOUDY    17  10  74 SE7       29.76F WCI   8
$$

SDZ012>016-024>037-041>051-057-063-072>074-181200-
SOUTHWEST AND SOUTH CENTRAL SOUTH DAKOTA

CITY           SKY/WX    TMP DP  RH WIND       PRES   REMARKS
RAPID CTY ARPT CLOUDY    25  17  72 CALM      29.83F
PIERRE         CLOUDY    21  14  74 SW9       29.84F WCI  11
CUSTER         CLOUDY    36  18  48 W8        29.88F
ELLSWORTH AFB  CLOUDY    34  19  55 SW10      29.82F WCI  26
PHILIP         CLOUDY    26  18  71 W15       29.85F WCI  14
PINE RIDGE     CLOUDY    32  16  51 SW8       29.90S WCI  25
SPEARFISH      FAIR      39  25  56 CALM      29.81F
WINNER         FAIR      30  19  63 CALM      29.87F
$$

SDZ004>011-016>023-039-040-181200-
NORTHEAST SOUTH DAKOTA

CITY           SKY/WX    TMP DP  RH WIND       PRES   REMARKS
ABERDEEN       CLEAR     17  11  77 S10       29.82S WCI   5
WATERTOWN      CLOUDY    20  17  88 S10       29.82F WCI   9
BROOKINGS      CLOUDY    23  22  96 S13       29.87F WCI  11
SISSETON         N/A     39  22  50 CALM      29.75F
$$

SDZ017-020-022-023-036>040-048>070-181200-
SOUTHEAST SOUTH DAKOTA

CITY           SKY/WX    TMP DP  RH WIND       PRES   REMARKS
SIOUX FALLS    CLOUDY    27  24  89 S5        29.92F WCI  22
HURON          CLOUDY    20  19  96 MISG      29.87F
CHAMBERLAIN    CLOUDY    22  19  88 W5        29.88F WCI  15
MITCHELL       CLOUDY    18  17  96 S5        29.91F WCI  11
YANKTON        CLEAR     34  28  80 SW6       29.92F WCI  29
$$

ABBREVIATIONS USED IN REMARKS
   TC - TEMPERATURE IN CELSIUS
  WCI - WIND CHILL INDEX
   HX - HEAT INDEX
  VSB - VISIBILITY





USA.gov is the U.S. government's official web portal to all federal, state and local government web resources and services.